Time,TemperatureF,DewpointF,PressureIn,WindDirection,WindDirectionDegrees,WindSpeedMPH,WindSpeedGustMPH,Humidity,HourlyPrecipIn,Conditions,Clouds,dailyrainin,SoftwareType,DateUTC
2013-04-24 00:02:00,58.5,45.9,29.83,North,0,0.0,0.0,63,0.00,,,0.00,WUHU216HW,2013-04-24 07:02:00,
2013-04-24 00:07:00,58.3,45.7,29.83,North,0,0.0,0.0,63,0.00,,,0.00,WUHU216HW,2013-04-24 07:07:00,
2013-04-24 00:12:00,58.0,45.8,29.83,North,0,0.0,0.0,64,0.00,,,0.00,WUHU216HW,2013-04-24 07:12:00,
2013-04-24 00:17:00,57.6,45.5,29.82,North,0,0.0,0.0,64,0.00,,,0.00,WUHU216HW,2013-04-24 07:17:00,
2013-04-24 00:22:00,57.6,45.5,29.83,North,0,0.0,0.0,64,0.00,,,0.00,WUHU216HW,2013-04-24 07:22:00,
2013-04-24 00:27:00,57.4,45.3,29.83,North,0,0.0,0.0,64,0.00,,,0.00,WUHU216HW,2013-04-24 07:27:00,
2013-04-24 00:32:00,57.4,45.3,29.83,North,0,0.0,0.0,64,0.00,,,0.00,WUHU216HW,2013-04-24 07:32:00,
2013-04-24 00:37:00,57.2,45.5,29.83,North,0,0.0,0.0,65,0.00,,,0.00,WUHU216HW,2013-04-24 07:37:00,
2013-04-24 00:42:00,56.9,45.2,29.83,North,0,0.0,0.0,65,0.00,,,0.00,WUHU216HW,2013-04-24 07:42:00,
2013-04-24 00:47:00,56.5,45.6,29.83,North,0,0.0,0.0,67,0.00,,,0.00,WUHU216HW,2013-04-24 07:47:00,
2013-04-24 00:52:00,56.2,45.7,29.83,North,0,0.0,0.0,68,0.00,,,0.00,WUHU216HW,2013-04-24 07:52:00,
2013-04-24 00:57:00,56.2,46.2,29.83,North,0,0.0,0.0,69,0.00,,,0.00,WUHU216HW,2013-04-24 07:57:00,
2013-04-24 01:02:00,56.2,47.6,29.83,NE,50,0.4,0.7,73,0.00,,,0.00,WUHU216HW,2013-04-24 08:02:00,
2013-04-24 01:07:00,56.3,46.3,29.83,ESE,113,0.2,0.2,69,0.00,,,0.00,WUHU216HW,2013-04-24 08:07:00,
2013-04-24 01:12:00,56.3,45.9,29.83,North,0,0.0,0.0,68,0.00,,,0.00,WUHU216HW,2013-04-24 08:12:00,
2013-04-24 01:17:00,56.2,45.7,29.83,North,0,0.0,0.0,68,0.00,,,0.00,WUHU216HW,2013-04-24 08:17:00,
2013-04-24 01:22:00,55.8,45.4,29.83,North,0,0.0,0.0,68,0.00,,,0.00,WUHU216HW,2013-04-24 08:22:00,
2013-04-24 01:27:00,55.8,46.3,29.82,North,0,0.0,0.0,70,0.00,,,0.00,WUHU216HW,2013-04-24 08:27:00,
2013-04-24 01:32:00,56.0,45.5,29.82,North,0,0.0,0.0,68,0.00,,,0.00,WUHU216HW,2013-04-24 08:32:00,
2013-04-24 01:37:00,56.2,45.7,29.82,North,0,0.0,0.0,68,0.00,,,0.00,WUHU216HW,2013-04-24 08:37:00,
2013-04-24 01:42:00,56.0,45.2,29.82,North,0,0.0,0.0,67,0.00,,,0.00,WUHU216HW,2013-04-24 08:42:00,
2013-04-24 01:47:00,55.8,45.4,29.82,North,0,0.0,0.0,68,0.00,,,0.00,WUHU216HW,2013-04-24 08:47:00,
2013-04-24 01:52:00,55.8,45.4,29.82,SSW,206,0.8,1.6,68,0.00,,,0.00,WUHU216HW,2013-04-24 08:52:00,
2013-04-24 01:57:00,55.8,45.8,29.82,SW,225,0.4,0.4,69,0.00,,,0.00,WUHU216HW,2013-04-24 08:57:00,
2013-04-24 02:02:00,55.6,46.1,29.82,SSE,147,0.4,0.7,70,0.00,,,0.00,WUHU216HW,2013-04-24 09:02:00,
2013-04-24 02:07:00,55.3,45.3,29.82,North,0,0.0,0.0,69,0.00,,,0.00,WUHU216HW,2013-04-24 09:07:00,
2013-04-24 02:12:00,55.1,45.1,29.81,SW,220,0.3,0.4,69,0.00,,,0.00,WUHU216HW,2013-04-24 09:12:00,
2013-04-24 02:17:00,55.1,45.1,29.81,North,0,0.0,0.0,69,0.00,,,0.00,WUHU216HW,2013-04-24 09:17:00,
2013-04-24 02:22:00,54.9,44.9,29.81,SSE,158,0.4,0.4,69,0.00,,,0.00,WUHU216HW,2013-04-24 09:22:00,
2013-04-24 02:27:00,54.5,44.6,29.81,SE,146,0.3,0.4,69,0.00,,,0.00,WUHU216HW,2013-04-24 09:27:00,
2013-04-24 02:32:00,54.5,44.6,29.81,North,0,0.0,0.0,69,0.00,,,0.00,WUHU216HW,2013-04-24 09:32:00,
2013-04-24 02:37:00,54.4,44.5,29.81,North,0,0.0,0.0,69,0.00,,,0.00,WUHU216HW,2013-04-24 09:37:00,
2013-04-24 02:42:00,54.2,44.6,29.81,ESE,120,0.4,0.4,70,0.00,,,0.00,WUHU216HW,2013-04-24 09:42:00,
2013-04-24 02:47:00,53.8,44.3,29.81,ESE,113,0.3,0.4,70,0.00,,,0.00,WUHU216HW,2013-04-24 09:47:00,
2013-04-24 02:52:00,53.6,44.8,29.81,North,0,0.0,0.0,72,0.00,,,0.00,WUHU216HW,2013-04-24 09:52:00,
2013-04-24 02:57:00,53.5,44.3,29.80,North,0,0.0,0.0,71,0.00,,,0.00,WUHU216HW,2013-04-24 09:57:00,
2013-04-24 03:02:00,53.6,44.8,29.81,North,0,0.0,0.0,72,0.00,,,0.00,WUHU216HW,2013-04-24 10:02:00,
2013-04-24 03:07:00,53.6,44.5,29.81,North,0,0.0,0.0,71,0.00,,,0.00,WUHU216HW,2013-04-24 10:07:00,
2013-04-24 03:12:00,53.6,44.5,29.80,North,0,0.0,0.0,71,0.00,,,0.00,WUHU216HW,2013-04-24 10:12:00,
2013-04-24 03:17:00,53.6,44.5,29.81,North,0,0.0,0.0,71,0.00,,,0.00,WUHU216HW,2013-04-24 10:17:00,
2013-04-24 03:22:00,53.6,44.1,29.81,North,0,0.0,0.0,70,0.00,,,0.00,WUHU216HW,2013-04-24 10:22:00,
2013-04-24 03:27:00,53.6,44.1,29.80,North,0,0.0,0.0,70,0.00,,,0.00,WUHU216HW,2013-04-24 10:27:00,
2013-04-24 03:32:00,53.8,44.7,29.81,North,0,0.0,0.0,71,0.00,,,0.00,WUHU216HW,2013-04-24 10:32:00,
2013-04-24 03:37:00,54.2,44.6,29.80,North,0,0.0,0.0,70,0.00,,,0.00,WUHU216HW,2013-04-24 10:37:00,
2013-04-24 03:42:00,54.4,44.5,29.80,North,0,0.0,0.0,69,0.00,,,0.00,WUHU216HW,2013-04-24 10:42:00,
2013-04-24 03:47:00,54.4,44.0,29.80,North,0,0.0,0.0,68,0.00,,,0.00,WUHU216HW,2013-04-24 10:47:00,
2013-04-24 03:52:00,54.4,43.7,29.81,North,0,0.0,0.0,67,0.00,,,0.00,WUHU216HW,2013-04-24 10:52:00,
2013-04-24 03:57:00,54.4,44.0,29.81,North,0,0.0,0.0,68,0.00,,,0.00,WUHU216HW,2013-04-24 10:57:00,
2013-04-24 04:02:00,54.4,44.0,29.81,North,0,0.0,0.0,68,0.00,,,0.00,WUHU216HW,2013-04-24 11:02:00,
2013-04-24 04:07:00,54.4,44.5,29.81,ESE,113,0.2,0.2,69,0.00,,,0.00,WUHU216HW,2013-04-24 11:07:00,
2013-04-24 04:12:00,54.5,44.2,29.81,North,0,0.0,0.0,68,0.00,,,0.00,WUHU216HW,2013-04-24 11:12:00,
2013-04-24 04:17:00,54.4,44.0,29.81,SE,135,0.2,0.2,68,0.00,,,0.00,WUHU216HW,2013-04-24 11:17:00,
2013-04-24 04:22:00,54.4,44.0,29.81,ESE,118,0.5,0.7,68,0.00,,,0.00,WUHU216HW,2013-04-24 11:22:00,
2013-04-24 04:27:00,54.4,44.0,29.81,North,0,0.0,0.0,68,0.00,,,0.00,WUHU216HW,2013-04-24 11:27:00,
2013-04-24 04:32:00,54.4,44.0,29.81,North,0,0.0,0.0,68,0.00,,,0.00,WUHU216HW,2013-04-24 11:32:00,
2013-04-24 04:37:00,54.4,43.7,29.81,North,0,0.0,0.0,67,0.00,,,0.00,WUHU216HW,2013-04-24 11:37:00,
2013-04-24 04:42:00,54.0,43.3,29.81,North,0,0.0,0.0,67,0.00,,,0.00,WUHU216HW,2013-04-24 11:42:00,
2013-04-24 04:47:00,53.8,43.5,29.81,North,0,0.0,0.0,68,0.00,,,0.00,WUHU216HW,2013-04-24 11:47:00,
2013-04-24 04:52:00,53.8,43.5,29.81,North,0,0.0,0.0,68,0.00,,,0.00,WUHU216HW,2013-04-24 11:52:00,
2013-04-24 04:57:00,53.8,43.9,29.81,North,0,0.0,0.0,69,0.00,,,0.00,WUHU216HW,2013-04-24 11:57:00,
2013-04-24 05:02:00,54.0,43.7,29.81,SE,135,0.2,0.2,68,0.00,,,0.00,WUHU216HW,2013-04-24 12:02:00,
2013-04-24 05:07:00,54.0,43.7,29.81,East,90,0.2,0.2,68,0.00,,,0.00,WUHU216HW,2013-04-24 12:07:00,
2013-04-24 05:13:00,54.0,43.7,29.81,North,0,0.0,0.0,68,0.00,,,0.00,WUHU216HW,2013-04-24 12:13:00,
2013-04-24 05:18:00,54.0,43.7,29.81,North,0,0.0,0.0,68,0.00,,,0.00,WUHU216HW,2013-04-24 12:18:00,
2013-04-24 05:23:00,54.0,44.1,29.81,SE,140,0.3,0.4,69,0.00,,,0.00,WUHU216HW,2013-04-24 12:23:00,
2013-04-24 05:28:00,54.2,43.8,29.81,SE,128,0.3,0.4,68,0.00,,,0.00,WUHU216HW,2013-04-24 12:28:00,
2013-04-24 05:33:00,54.4,44.0,29.81,North,0,0.0,0.0,68,0.00,,,0.00,WUHU216HW,2013-04-24 12:33:00,
2013-04-24 05:38:00,54.4,44.0,29.81,ESE,116,0.3,0.4,68,0.00,,,0.00,WUHU216HW,2013-04-24 12:38:00,
2013-04-24 05:43:00,54.4,43.7,29.81,North,0,0.0,0.0,67,0.00,,,0.00,WUHU216HW,2013-04-24 12:43:00,
2013-04-24 05:48:00,54.2,43.5,29.81,North,0,0.0,0.0,67,0.00,,,0.00,WUHU216HW,2013-04-24 12:48:00,
2013-04-24 05:53:00,53.8,43.5,29.82,North,0,0.0,0.0,68,0.00,,,0.00,WUHU216HW,2013-04-24 12:53:00,
2013-04-24 05:58:00,53.6,43.3,29.82,North,0,0.0,0.0,68,0.00,,,0.00,WUHU216HW,2013-04-24 12:58:00,
2013-04-24 06:03:00,53.6,43.3,29.82,North,0,0.0,0.0,68,0.00,,,0.00,WUHU216HW,2013-04-24 13:03:00,
2013-04-24 06:08:00,53.5,43.1,29.82,North,0,0.0,0.0,68,0.00,,,0.00,WUHU216HW,2013-04-24 13:08:00,
2013-04-24 06:13:00,53.3,43.4,29.82,North,0,0.0,0.0,69,0.00,,,0.00,WUHU216HW,2013-04-24 13:13:00,
2013-04-24 06:18:00,53.3,43.4,29.82,North,0,0.0,0.0,69,0.00,,,0.00,WUHU216HW,2013-04-24 13:18:00,
2013-04-24 06:23:00,53.3,43.4,29.82,North,0,0.0,0.0,69,0.00,,,0.00,WUHU216HW,2013-04-24 13:23:00,
2013-04-24 06:28:00,53.3,43.4,29.82,North,0,0.0,0.0,69,0.00,,,0.00,WUHU216HW,2013-04-24 13:28:00,
2013-04-24 06:33:00,53.1,43.2,29.82,North,0,0.0,0.0,69,0.00,,,0.00,WUHU216HW,2013-04-24 13:33:00,
2013-04-24 06:38:00,53.3,43.0,29.82,North,0,0.0,0.0,68,0.00,,,0.00,WUHU216HW,2013-04-24 13:38:00,
2013-04-24 06:43:00,54.0,43.7,29.82,North,0,0.0,0.0,68,0.00,,,0.00,WUHU216HW,2013-04-24 13:43:00,
2013-04-24 06:48:00,55.1,44.3,29.82,North,0,0.0,0.0,67,0.00,,,0.00,WUHU216HW,2013-04-24 13:48:00,
2013-04-24 06:53:00,56.5,45.3,29.82,North,0,0.0,0.0,66,0.00,,,0.00,WUHU216HW,2013-04-24 13:53:00,
2013-04-24 06:58:00,58.9,46.7,29.82,North,0,0.0,0.0,64,0.00,,,0.00,WUHU216HW,2013-04-24 13:58:00,
2013-04-24 07:03:00,61.9,48.8,29.82,North,0,0.0,0.0,62,0.00,,,0.00,WUHU216HW,2013-04-24 14:03:00,
2013-04-24 07:08:00,63.4,48.8,29.82,North,0,0.0,0.0,59,0.00,,,0.00,WUHU216HW,2013-04-24 14:08:00,
2013-04-24 07:13:00,63.5,48.4,29.83,North,0,0.0,0.0,58,0.00,,,0.00,WUHU216HW,2013-04-24 14:13:00,
2013-04-24 07:18:00,65.0,50.3,29.83,North,0,0.0,0.0,59,0.00,,,0.00,WUHU216HW,2013-04-24 14:18:00,
2013-04-24 07:23:00,67.1,50.9,29.82,North,0,0.0,0.0,56,0.00,,,0.00,WUHU216HW,2013-04-24 14:23:00,
2013-04-24 07:28:00,68.0,49.8,29.82,ESE,115,0.3,0.4,52,0.00,,,0.00,WUHU216HW,2013-04-24 14:28:00,
2013-04-24 07:33:00,68.8,50.0,29.83,ESE,117,0.4,0.9,51,0.00,,,0.00,WUHU216HW,2013-04-24 14:33:00,
2013-04-24 07:38:00,69.5,49.5,29.83,ESE,121,0.3,0.4,49,0.00,,,0.00,WUHU216HW,2013-04-24 14:38:00,
2013-04-24 07:43:00,70.6,51.0,29.83,SE,130,0.5,1.3,50,0.00,,,0.00,WUHU216HW,2013-04-24 14:43:00,
2013-04-24 07:48:00,72.7,51.9,29.83,SE,140,0.5,1.1,48,0.00,,,0.00,WUHU216HW,2013-04-24 14:48:00,
2013-04-24 07:53:00,74.5,52.3,29.83,SSE,161,0.8,1.6,46,0.00,,,0.00,WUHU216HW,2013-04-24 14:53:00,
2013-04-24 07:58:00,73.4,50.7,29.83,SSE,149,1.0,1.8,45,0.00,,,0.00,WUHU216HW,2013-04-24 14:58:00,
2013-04-24 08:03:00,72.2,50.1,29.83,SSE,155,1.0,1.3,46,0.00,,,0.00,WUHU216HW,2013-04-24 15:03:00,
2013-04-24 08:09:00,71.3,49.3,29.83,South,174,1.1,2.0,46,0.00,,,0.00,WUHU216HW,2013-04-24 15:09:00,
2013-04-24 08:14:00,70.9,49.0,29.83,South,173,1.2,2.5,46,0.00,,,0.00,WUHU216HW,2013-04-24 15:14:00,
2013-04-24 08:19:00,70.9,49.0,29.83,South,175,1.4,2.0,46,0.00,,,0.00,WUHU216HW,2013-04-24 15:19:00,
2013-04-24 08:24:00,71.3,49.3,29.83,South,186,1.0,1.8,46,0.00,,,0.00,WUHU216HW,2013-04-24 15:24:00,
2013-04-24 08:29:00,71.6,49.7,29.83,South,173,1.0,1.6,46,0.00,,,0.00,WUHU216HW,2013-04-24 15:29:00,
2013-04-24 08:34:00,72.4,49.7,29.83,SSW,198,1.1,2.0,45,0.00,,,0.00,WUHU216HW,2013-04-24 15:34:00,
2013-04-24 08:39:00,72.7,49.4,29.83,SSW,195,1.3,2.7,44,0.00,,,0.00,WUHU216HW,2013-04-24 15:39:00,
2013-04-24 08:44:00,73.1,49.8,29.83,SW,217,1.2,2.5,44,0.00,,,0.00,WUHU216HW,2013-04-24 15:44:00,
2013-04-24 08:49:00,73.6,50.2,29.83,South,190,1.8,3.4,44,0.00,,,0.00,WUHU216HW,2013-04-24 15:49:00,
2013-04-24 08:54:00,74.0,50.0,29.83,South,184,1.9,2.9,43,0.00,,,0.00,WUHU216HW,2013-04-24 15:54:00,
2013-04-24 08:59:00,74.3,51.0,29.83,South,173,2.0,3.6,44,0.00,,,0.00,WUHU216HW,2013-04-24 15:59:00,
2013-04-24 09:04:00,74.5,50.5,29.83,South,187,2.1,2.9,43,0.00,,,0.00,WUHU216HW,2013-04-24 16:04:00,
2013-04-24 09:09:00,74.9,50.9,29.83,South,171,2.4,3.4,43,0.00,,,0.00,WUHU216HW,2013-04-24 16:09:00,
2013-04-24 09:14:00,75.2,51.1,29.83,SSW,204,2.0,3.1,43,0.00,,,0.00,WUHU216HW,2013-04-24 16:14:00,
2013-04-24 09:19:00,75.6,51.5,29.83,SSW,201,1.9,3.1,43,0.00,,,0.00,WUHU216HW,2013-04-24 16:19:00,
2013-04-24 09:24:00,76.0,52.4,29.83,South,180,1.9,3.6,44,0.00,,,0.00,WUHU216HW,2013-04-24 16:24:00,
2013-04-24 09:29:00,76.5,51.7,29.82,SSW,213,2.3,3.4,42,0.00,,,0.00,WUHU216HW,2013-04-24 16:29:00,
2013-04-24 09:34:00,76.9,50.8,29.82,South,184,1.9,3.8,40,0.00,,,0.00,WUHU216HW,2013-04-24 16:34:00,
2013-04-24 09:39:00,77.0,50.2,29.82,South,191,2.4,4.0,39,0.00,,,0.00,WUHU216HW,2013-04-24 16:39:00,
2013-04-24 09:44:00,77.0,51.6,29.82,South,176,2.4,3.8,41,0.00,,,0.00,WUHU216HW,2013-04-24 16:44:00,
2013-04-24 09:49:00,77.4,49.8,29.82,SSE,167,3.0,4.7,38,0.00,,,0.00,WUHU216HW,2013-04-24 16:49:00,
2013-04-24 09:54:00,77.8,51.6,29.82,SSW,200,3.0,4.9,40,0.00,,,0.00,WUHU216HW,2013-04-24 16:54:00,
2013-04-24 09:59:00,78.3,51.3,29.82,SSW,195,2.8,4.5,39,0.00,,,0.00,WUHU216HW,2013-04-24 16:59:00,
2013-04-24 10:04:00,78.7,50.0,29.82,South,172,3.3,4.7,37,0.00,,,0.00,WUHU216HW,2013-04-24 17:04:00,
2013-04-24 10:09:00,78.7,50.0,29.82,SSW,192,3.3,4.9,37,0.00,,,0.00,WUHU216HW,2013-04-24 17:09:00,
2013-04-24 10:14:00,78.8,50.2,29.82,South,178,3.2,4.7,37,0.00,,,0.00,WUHU216HW,2013-04-24 17:14:00,
2013-04-24 10:19:00,78.8,49.5,29.82,SSW,198,3.2,4.7,36,0.00,,,0.00,WUHU216HW,2013-04-24 17:19:00,
2013-04-24 10:24:00,79.2,50.6,29.83,SSW,208,3.0,5.6,37,0.00,,,0.00,WUHU216HW,2013-04-24 17:24:00,
2013-04-24 10:29:00,79.6,48.6,29.82,SSW,192,3.3,5.6,34,0.00,,,0.00,WUHU216HW,2013-04-24 17:29:00,
2013-04-24 10:34:00,79.6,50.9,29.83,SSW,202,2.9,5.8,37,0.00,,,0.00,WUHU216HW,2013-04-24 17:34:00,
2013-04-24 10:39:00,79.6,49.3,29.83,SSW,202,2.5,4.7,35,0.00,,,0.00,WUHU216HW,2013-04-24 17:39:00,
2013-04-24 10:44:00,79.9,49.7,29.82,South,179,2.5,4.3,35,0.00,,,0.00,WUHU216HW,2013-04-24 17:44:00,
2013-04-24 10:49:00,80.5,50.1,29.82,South,182,2.9,4.7,35,0.00,,,0.00,WUHU216HW,2013-04-24 17:49:00,
2013-04-24 10:54:00,80.8,50.5,29.82,SSE,167,1.8,2.7,35,0.00,,,0.00,WUHU216HW,2013-04-24 17:54:00,
2013-04-24 10:59:00,81.0,49.9,29.82,South,172,3.2,4.3,34,0.00,,,0.00,WUHU216HW,2013-04-24 17:59:00,
2013-04-24 11:04:00,81.0,49.1,29.82,SSW,201,2.6,4.0,33,0.00,,,0.00,WUHU216HW,2013-04-24 18:04:00,
2013-04-24 11:09:00,81.4,51.7,29.82,SSW,202,2.7,5.1,36,0.00,,,0.00,WUHU216HW,2013-04-24 18:09:00,
2013-04-24 11:14:00,81.7,51.2,29.82,SSW,196,3.0,4.9,35,0.00,,,0.00,WUHU216HW,2013-04-24 18:14:00,
2013-04-24 11:19:00,81.9,51.4,29.82,SSW,212,2.5,4.0,35,0.00,,,0.00,WUHU216HW,2013-04-24 18:19:00,
2013-04-24 11:24:00,81.9,51.4,29.82,WSW,239,2.4,5.4,35,0.00,,,0.00,WUHU216HW,2013-04-24 18:24:00,
2013-04-24 11:29:00,81.9,51.4,29.82,South,185,3.0,4.5,35,0.00,,,0.00,WUHU216HW,2013-04-24 18:29:00,
2013-04-24 11:34:00,82.1,51.6,29.82,SSW,213,2.0,3.6,35,0.00,,,0.00,WUHU216HW,2013-04-24 18:34:00,
2013-04-24 11:39:00,82.1,51.6,29.82,SW,233,1.9,4.0,35,0.00,,,0.00,WUHU216HW,2013-04-24 18:39:00,
2013-04-24 11:44:00,81.9,51.4,29.82,WSW,246,2.3,5.4,35,0.00,,,0.00,WUHU216HW,2013-04-24 18:44:00,
2013-04-24 11:49:00,81.9,50.6,29.82,West,269,2.8,5.8,34,0.00,,,0.00,WUHU216HW,2013-04-24 18:49:00,
2013-04-24 11:54:00,81.5,49.5,29.82,SW,222,3.5,4.7,33,0.00,,,0.00,WUHU216HW,2013-04-24 18:54:00,
2013-04-24 11:59:00,81.9,51.4,29.81,West,260,2.3,4.5,35,0.00,,,0.00,WUHU216HW,2013-04-24 18:59:00,
2013-04-24 12:04:00,82.3,51.0,29.81,WNW,284,2.1,4.0,34,0.00,,,0.00,WUHU216HW,2013-04-24 19:04:00,
2013-04-24 12:09:00,82.3,50.1,29.80,West,261,2.1,3.4,33,0.00,,,0.00,WUHU216HW,2013-04-24 19:09:00,
2013-04-24 12:14:00,82.4,47.9,29.80,SSW,207,2.0,3.8,30,0.00,,,0.00,WUHU216HW,2013-04-24 19:14:00,
2013-04-24 12:19:00,82.8,50.6,29.80,West,262,2.3,4.7,33,0.00,,,0.00,WUHU216HW,2013-04-24 19:19:00,
2013-04-24 12:24:00,83.2,48.5,29.80,West,260,2.5,5.8,30,0.00,,,0.00,WUHU216HW,2013-04-24 19:24:00,
2013-04-24 12:29:00,83.2,47.5,29.80,SW,219,2.1,3.6,29,0.00,,,0.00,WUHU216HW,2013-04-24 19:29:00,
2013-04-24 12:34:00,83.7,49.1,29.80,South,185,1.7,4.0,30,0.00,,,0.00,WUHU216HW,2013-04-24 19:34:00,
2013-04-24 12:40:00,84.4,49.7,29.79,South,177,1.9,3.1,30,0.00,,,0.00,WUHU216HW,2013-04-24 19:40:00,
2013-04-24 12:45:00,85.0,48.0,29.79,NW,324,2.4,4.9,28,0.00,,,0.00,WUHU216HW,2013-04-24 19:45:00,
2013-04-24 12:50:00,84.6,44.5,29.79,SSW,200,2.2,4.0,25,0.00,,,0.00,WUHU216HW,2013-04-24 19:50:00,
2013-04-24 12:55:00,84.6,47.7,29.79,South,185,1.5,3.1,28,0.00,,,0.00,WUHU216HW,2013-04-24 19:55:00,
2013-04-24 13:00:00,84.8,45.7,29.79,WNW,291,1.9,4.5,26,0.00,,,0.00,WUHU216HW,2013-04-24 20:00:00,
2013-04-24 13:05:00,85.0,45.9,29.79,NW,309,1.5,4.3,26,0.00,,,0.00,WUHU216HW,2013-04-24 20:05:00,
2013-04-24 13:10:00,84.6,45.5,29.78,SSE,164,1.5,3.8,26,0.00,,,0.00,WUHU216HW,2013-04-24 20:10:00,
2013-04-24 13:15:00,85.3,48.3,29.78,WNW,297,2.7,4.5,28,0.00,,,0.00,WUHU216HW,2013-04-24 20:15:00,
2013-04-24 13:20:00,85.7,46.5,29.78,WNW,284,2.4,4.3,26,0.00,,,0.00,WUHU216HW,2013-04-24 20:20:00,
2013-04-24 13:25:00,84.8,45.7,29.78,SSE,156,1.3,2.7,26,0.00,,,0.00,WUHU216HW,2013-04-24 20:25:00,
2013-04-24 13:30:00,84.8,45.7,29.78,NW,317,2.3,5.1,26,0.00,,,0.00,WUHU216HW,2013-04-24 20:30:00,
2013-04-24 13:35:00,85.1,44.9,29.77,WNW,299,2.8,5.8,25,0.00,,,0.00,WUHU216HW,2013-04-24 20:35:00,
2013-04-24 13:40:00,85.0,44.8,29.77,NW,315,1.5,3.4,25,0.00,,,0.00,WUHU216HW,2013-04-24 20:40:00,
2013-04-24 13:45:00,85.5,46.4,29.77,West,280,2.1,4.5,26,0.00,,,0.00,WUHU216HW,2013-04-24 20:45:00,
2013-04-24 13:50:00,86.0,45.7,29.77,WNW,297,3.0,5.8,25,0.00,,,0.00,WUHU216HW,2013-04-24 20:50:00,
2013-04-24 13:55:00,86.2,44.8,29.76,WNW,299,2.9,5.1,24,0.00,,,0.00,WUHU216HW,2013-04-24 20:55:00,
2013-04-24 14:00:00,86.6,46.2,29.76,NW,305,2.6,4.9,25,0.00,,,0.00,WUHU216HW,2013-04-24 21:00:00,
2013-04-24 14:05:00,86.2,43.8,29.75,NNW,331,1.6,3.4,23,0.00,,,0.00,WUHU216HW,2013-04-24 21:05:00,
2013-04-24 14:10:00,86.8,46.4,29.75,NW,311,2.5,4.3,25,0.00,,,0.00,WUHU216HW,2013-04-24 21:10:00,
2013-04-24 14:15:00,87.3,44.6,29.75,WNW,303,2.8,6.9,23,0.00,,,0.00,WUHU216HW,2013-04-24 21:15:00,
2013-04-24 14:20:00,87.8,47.3,29.74,SSW,198,2.0,4.7,25,0.00,,,0.00,WUHU216HW,2013-04-24 21:20:00,
2013-04-24 14:25:00,88.4,44.6,29.74,NW,306,3.4,5.6,22,0.00,,,0.00,WUHU216HW,2013-04-24 21:25:00,
2013-04-24 14:30:00,87.8,46.2,29.74,NW,316,2.3,5.4,24,0.00,,,0.00,WUHU216HW,2013-04-24 21:30:00,
2013-04-24 14:35:00,88.2,46.5,29.74,WNW,300,3.8,4.9,24,0.00,,,0.00,WUHU216HW,2013-04-24 21:35:00,
2013-04-24 14:40:00,87.8,46.2,29.74,NW,311,2.4,5.8,24,0.00,,,0.00,WUHU216HW,2013-04-24 21:40:00,
2013-04-24 14:45:00,88.2,45.5,29.74,WNW,303,3.6,6.3,23,0.00,,,0.00,WUHU216HW,2013-04-24 21:45:00,
2013-04-24 14:50:00,87.5,43.7,29.74,NNW,347,2.7,6.9,22,0.00,,,0.00,WUHU216HW,2013-04-24 21:50:00,
2013-04-24 14:55:00,87.3,43.6,29.74,NW,313,2.4,4.3,22,0.00,,,0.00,WUHU216HW,2013-04-24 21:55:00,
2013-04-24 15:00:00,87.5,45.9,29.73,NW,310,2.1,6.9,24,0.00,,,0.00,WUHU216HW,2013-04-24 22:00:00,
2013-04-24 15:05:00,87.5,44.8,29.73,NW,320,2.5,7.2,23,0.00,,,0.00,WUHU216HW,2013-04-24 22:05:00,
2013-04-24 15:10:00,87.7,46.0,29.73,WNW,300,2.8,6.9,24,0.00,,,0.00,WUHU216HW,2013-04-24 22:10:00,
2013-04-24 15:15:00,88.2,46.5,29.73,WNW,299,3.9,6.9,24,0.00,,,0.00,WUHU216HW,2013-04-24 22:15:00,
2013-04-24 15:20:00,88.4,45.5,29.72,WNW,303,3.1,6.0,23,0.00,,,0.00,WUHU216HW,2013-04-24 22:20:00,
2013-04-24 15:25:00,88.2,44.4,29.72,NW,310,2.0,4.3,22,0.00,,,0.00,WUHU216HW,2013-04-24 22:25:00,
2013-04-24 15:30:00,87.7,43.9,29.72,NNW,338,2.4,6.9,22,0.00,,,0.00,WUHU216HW,2013-04-24 22:30:00,
2013-04-24 15:35:00,88.0,45.3,29.72,NW,319,2.6,4.5,23,0.00,,,0.00,WUHU216HW,2013-04-24 22:35:00,
2013-04-24 15:40:00,88.0,46.4,29.71,WNW,300,2.5,4.5,24,0.00,,,0.00,WUHU216HW,2013-04-24 22:40:00,
2013-04-24 15:45:00,88.0,45.3,29.71,NW,313,2.7,5.6,23,0.00,,,0.00,WUHU216HW,2013-04-24 22:45:00,
2013-04-24 15:50:00,88.2,44.4,29.71,NW,326,2.5,5.8,22,0.00,,,0.00,WUHU216HW,2013-04-24 22:50:00,
2013-04-24 15:55:00,88.2,44.4,29.71,NNW,330,2.2,4.5,22,0.00,,,0.00,WUHU216HW,2013-04-24 22:55:00,
2013-04-24 16:00:00,88.2,44.4,29.71,NW,309,2.0,4.7,22,0.00,,,0.00,WUHU216HW,2013-04-24 23:00:00,
2013-04-24 16:05:00,88.2,40.5,29.71,NW,318,2.1,6.3,19,0.00,,,0.00,WUHU216HW,2013-04-24 23:05:00,
2013-04-24 16:10:00,88.2,40.5,29.71,NNW,330,2.2,6.3,19,0.00,,,0.00,WUHU216HW,2013-04-24 23:10:00,
2013-04-24 16:15:00,88.9,44.9,29.71,NW,313,3.3,4.3,22,0.00,,,0.00,WUHU216HW,2013-04-24 23:15:00,
2013-04-24 16:20:00,89.6,44.5,29.70,WNW,282,3.5,6.9,21,0.00,,,0.00,WUHU216HW,2013-04-24 23:20:00,
2013-04-24 16:25:00,89.8,41.8,29.71,WNW,290,4.0,6.5,19,0.00,,,0.00,WUHU216HW,2013-04-24 23:25:00,
2013-04-24 16:30:00,89.5,41.5,29.70,NW,314,3.0,5.4,19,0.00,,,0.00,WUHU216HW,2013-04-24 23:30:00,
2013-04-24 16:35:00,89.1,44.0,29.70,WNW,298,2.8,5.8,21,0.00,,,0.00,WUHU216HW,2013-04-24 23:35:00,
2013-04-24 16:40:00,88.6,43.6,29.71,NNW,331,2.3,4.3,21,0.00,,,0.00,WUHU216HW,2013-04-24 23:40:00,
2013-04-24 16:45:00,88.2,43.3,29.70,WNW,289,3.4,6.9,21,0.00,,,0.00,WUHU216HW,2013-04-24 23:45:00,
2013-04-24 16:50:00,88.2,43.3,29.70,WNW,298,3.7,6.3,21,0.00,,,0.00,WUHU216HW,2013-04-24 23:50:00,
2013-04-24 16:55:00,88.2,43.3,29.70,NW,306,3.3,5.4,21,0.00,,,0.00,WUHU216HW,2013-04-24 23:55:00,
2013-04-24 17:00:00,88.2,43.3,29.70,WNW,293,2.1,3.8,21,0.00,,,0.00,WUHU216HW,2013-04-25 00:00:00,
2013-04-24 17:05:00,87.8,41.9,29.70,NW,307,3.5,7.2,20,0.00,,,0.00,WUHU216HW,2013-04-25 00:05:00,
2013-04-24 17:10:00,87.5,39.9,29.70,NNW,335,1.7,4.7,19,0.00,,,0.00,WUHU216HW,2013-04-25 00:10:00,
2013-04-24 17:15:00,87.3,42.5,29.70,NW,326,2.8,6.3,21,0.00,,,0.00,WUHU216HW,2013-04-25 00:15:00,
2013-04-24 17:20:00,87.7,40.1,29.71,WNW,298,4.4,6.3,19,0.00,,,0.00,WUHU216HW,2013-04-25 00:20:00,
2013-04-24 17:25:00,87.3,39.7,29.70,NW,310,2.9,4.9,19,0.00,,,0.00,WUHU216HW,2013-04-25 00:25:00,
2013-04-24 17:30:00,87.1,39.6,29.70,NW,307,1.6,2.9,19,0.00,,,0.00,WUHU216HW,2013-04-25 00:30:00,
2013-04-24 17:35:00,87.1,39.6,29.70,NW,316,3.3,4.9,19,0.00,,,0.00,WUHU216HW,2013-04-25 00:35:00,
2013-04-24 17:40:00,86.9,39.4,29.71,WNW,291,3.2,4.9,19,0.00,,,0.00,WUHU216HW,2013-04-25 00:40:00,
2013-04-24 17:45:00,87.1,39.6,29.71,WNW,303,3.2,4.7,19,0.00,,,0.00,WUHU216HW,2013-04-25 00:45:00,
2013-04-24 17:50:00,86.9,39.4,29.70,NW,310,2.5,6.0,19,0.00,,,0.00,WUHU216HW,2013-04-25 00:50:00,
2013-04-24 17:55:00,87.5,39.9,29.71,WNW,295,3.6,6.3,19,0.00,,,0.00,WUHU216HW,2013-04-25 00:55:00,
2013-04-24 18:00:00,87.3,39.7,29.71,WNW,302,1.6,4.0,19,0.00,,,0.00,WUHU216HW,2013-04-25 01:00:00,
2013-04-24 18:05:00,87.3,39.7,29.71,NW,313,3.2,6.0,19,0.00,,,0.00,WUHU216HW,2013-04-25 01:05:00,
2013-04-24 18:10:00,86.9,39.4,29.71,NW,317,2.4,4.7,19,0.00,,,0.00,WUHU216HW,2013-04-25 01:10:00,
2013-04-24 18:15:00,86.9,42.2,29.71,WNW,302,2.8,4.0,21,0.00,,,0.00,WUHU216HW,2013-04-25 01:15:00,
2013-04-24 18:20:00,86.9,42.2,29.71,WNW,303,2.5,3.6,21,0.00,,,0.00,WUHU216HW,2013-04-25 01:20:00,
2013-04-24 18:25:00,86.6,41.9,29.71,NW,313,2.1,3.8,21,0.00,,,0.00,WUHU216HW,2013-04-25 01:25:00,
2013-04-24 18:30:00,86.0,42.5,29.71,NW,311,2.3,3.8,22,0.00,,,0.00,WUHU216HW,2013-04-25 01:30:00,
2013-04-24 18:35:00,86.0,42.5,29.71,WNW,294,2.2,3.4,22,0.00,,,0.00,WUHU216HW,2013-04-25 01:35:00,
2013-04-24 18:40:00,85.7,42.2,29.72,WNW,291,2.4,4.7,22,0.00,,,0.00,WUHU216HW,2013-04-25 01:40:00,
2013-04-24 18:45:00,85.7,42.2,29.72,WNW,303,2.3,3.1,22,0.00,,,0.00,WUHU216HW,2013-04-25 01:45:00,
2013-04-24 18:50:00,85.3,42.9,29.72,WNW,298,1.7,2.7,23,0.00,,,0.00,WUHU216HW,2013-04-25 01:50:00,
2013-04-24 18:55:00,85.0,42.7,29.71,NW,305,1.5,2.0,23,0.00,,,0.00,WUHU216HW,2013-04-25 01:55:00,
2013-04-24 19:00:00,84.8,43.6,29.72,NW,305,1.5,1.8,24,0.00,,,0.00,WUHU216HW,2013-04-25 02:00:00,
2013-04-24 19:05:00,84.2,43.1,29.72,NW,304,1.7,2.7,24,0.00,,,0.00,WUHU216HW,2013-04-25 02:05:00,
2013-04-24 19:10:00,84.1,43.0,29.72,NW,307,1.0,1.3,24,0.00,,,0.00,WUHU216HW,2013-04-25 02:10:00,
2013-04-24 19:15:00,83.5,43.6,29.72,NW,315,0.8,1.1,25,0.00,,,0.00,WUHU216HW,2013-04-25 02:15:00,
2013-04-24 19:20:00,83.3,43.5,29.72,NW,315,0.7,1.1,25,0.00,,,0.00,WUHU216HW,2013-04-25 02:20:00,
2013-04-24 19:25:00,82.8,44.0,29.72,WNW,296,0.6,1.1,26,0.00,,,0.00,WUHU216HW,2013-04-25 02:25:00,
2013-04-24 19:30:00,81.7,45.2,29.72,NNW,338,0.2,0.2,28,0.00,,,0.00,WUHU216HW,2013-04-25 02:30:00,
2013-04-24 19:35:00,80.5,46.3,29.72,North,0,0.2,0.2,30,0.00,,,0.00,WUHU216HW,2013-04-25 02:35:00,
2013-04-24 19:40:00,79.6,44.5,29.72,NNW,338,0.3,0.4,29,0.00,,,0.00,WUHU216HW,2013-04-25 02:40:00,
2013-04-24 19:45:00,78.8,44.8,29.72,NNW,338,0.2,0.4,30,0.00,,,0.00,WUHU216HW,2013-04-25 02:45:00,
2013-04-24 19:50:00,78.1,44.3,29.73,North,0,0.0,0.0,30,0.00,,,0.00,WUHU216HW,2013-04-25 02:50:00,
2013-04-24 19:55:00,77.8,44.7,29.73,North,0,0.0,0.0,31,0.00,,,0.00,WUHU216HW,2013-04-25 02:55:00,
2013-04-24 20:00:00,76.7,45.4,29.73,North,0,0.3,0.4,33,0.00,,,0.00,WUHU216HW,2013-04-25 03:00:00,
2013-04-24 20:05:00,76.0,44.6,29.73,North,0,0.2,0.2,33,0.00,,,0.00,WUHU216HW,2013-04-25 03:05:00,
2013-04-24 20:10:00,75.6,45.1,29.73,North,0,0.0,0.0,34,0.00,,,0.00,WUHU216HW,2013-04-25 03:10:00,
2013-04-24 20:15:00,75.1,44.7,29.74,North,0,0.0,0.0,34,0.00,,,0.00,WUHU216HW,2013-04-25 03:15:00,
2013-04-24 20:20:00,74.3,44.7,29.74,North,0,0.0,0.0,35,0.00,,,0.00,WUHU216HW,2013-04-25 03:20:00,
2013-04-24 20:25:00,73.8,45.7,29.75,North,0,0.0,0.0,37,0.00,,,0.00,WUHU216HW,2013-04-25 03:25:00,
2013-04-24 20:30:00,73.4,45.5,29.75,North,0,0.0,0.0,37,0.00,,,0.00,WUHU216HW,2013-04-25 03:30:00,
2013-04-24 20:35:00,73.4,46.2,29.75,North,0,0.0,0.0,38,0.00,,,0.00,WUHU216HW,2013-04-25 03:35:00,
2013-04-24 20:40:00,73.1,45.9,29.75,North,0,0.0,0.0,38,0.00,,,0.00,WUHU216HW,2013-04-25 03:40:00,
2013-04-24 20:45:00,72.2,47.2,29.75,North,0,0.2,0.2,41,0.00,,,0.00,WUHU216HW,2013-04-25 03:45:00,
2013-04-24 20:50:00,71.5,46.5,29.76,North,0,0.0,0.0,41,0.00,,,0.00,WUHU216HW,2013-04-25 03:50:00,
2013-04-24 20:55:00,71.1,46.8,29.76,North,0,0.0,0.0,42,0.00,,,0.00,WUHU216HW,2013-04-25 03:55:00,
2013-04-24 21:00:00,70.9,48.4,29.76,North,0,0.0,0.0,45,0.00,,,0.00,WUHU216HW,2013-04-25 04:00:00,
2013-04-24 21:05:00,70.9,48.4,29.77,SE,140,1.5,2.5,45,0.00,,,0.00,WUHU216HW,2013-04-25 04:05:00,
2013-04-24 21:10:00,70.4,49.2,29.78,South,175,2.3,4.0,47,0.00,,,0.00,WUHU216HW,2013-04-25 04:10:00,
2013-04-24 21:15:00,69.8,50.4,29.78,SE,133,2.2,3.4,50,0.00,,,0.00,WUHU216HW,2013-04-25 04:15:00,
2013-04-24 21:20:00,68.9,50.1,29.79,SE,145,2.7,3.8,51,0.00,,,0.00,WUHU216HW,2013-04-25 04:20:00,
2013-04-24 21:25:00,68.4,50.0,29.80,SSE,163,2.9,4.3,52,0.00,,,0.00,WUHU216HW,2013-04-25 04:25:00,
2013-04-24 21:30:00,68.0,50.2,29.80,SSE,153,1.5,4.0,53,0.00,,,0.00,WUHU216HW,2013-04-25 04:30:00,
2013-04-24 21:35:00,67.7,50.4,29.80,ESE,123,2.1,3.8,54,0.00,,,0.00,WUHU216HW,2013-04-25 04:35:00,
2013-04-24 21:40:00,67.1,49.4,29.81,SSE,153,2.6,3.6,53,0.00,,,0.00,WUHU216HW,2013-04-25 04:40:00,
2013-04-24 21:45:00,67.0,49.8,29.81,SSE,152,2.6,4.0,54,0.00,,,0.00,WUHU216HW,2013-04-25 04:45:00,
2013-04-24 21:50:00,66.8,49.6,29.81,SSE,148,2.6,4.0,54,0.00,,,0.00,WUHU216HW,2013-04-25 04:50:00,
2013-04-24 21:55:00,66.6,49.4,29.81,SE,139,2.8,4.0,54,0.00,,,0.00,WUHU216HW,2013-04-25 04:55:00,
2013-04-24 22:00:00,66.4,49.2,29.82,SE,144,2.2,3.1,54,0.00,,,0.00,WUHU216HW,2013-04-25 05:00:00,
2013-04-24 22:05:00,66.2,49.2,29.82,SSE,158,1.7,2.9,54,0.00,,,0.00,WUHU216HW,2013-04-25 05:05:00,
2013-04-24 22:11:00,66.1,49.4,29.82,SSE,154,1.6,3.4,55,0.00,,,0.00,WUHU216HW,2013-04-25 05:11:00,
2013-04-24 22:16:00,65.9,48.8,29.82,SSE,157,2.6,4.7,54,0.00,,,0.00,WUHU216HW,2013-04-25 05:16:00,
2013-04-24 22:21:00,65.5,48.4,29.82,SSE,162,2.4,4.7,54,0.00,,,0.00,WUHU216HW,2013-04-25 05:21:00,
2013-04-24 22:26:00,65.3,48.7,29.82,South,179,2.7,4.9,55,0.00,,,0.00,WUHU216HW,2013-04-25 05:26:00,
2013-04-24 22:31:00,65.2,48.5,29.83,SSE,159,3.7,4.7,55,0.00,,,0.00,WUHU216HW,2013-04-25 05:31:00,
2013-04-24 22:36:00,64.8,48.6,29.83,South,181,3.8,4.7,56,0.00,,,0.00,WUHU216HW,2013-04-25 05:36:00,
2013-04-24 22:41:00,64.4,48.2,29.84,SSE,147,3.6,4.7,56,0.00,,,0.00,WUHU216HW,2013-04-25 05:41:00,
2013-04-24 22:46:00,64.4,48.8,29.84,SSE,157,3.5,5.6,57,0.00,,,0.00,WUHU216HW,2013-04-25 05:46:00,
2013-04-24 22:51:00,64.3,48.2,29.84,SSE,158,3.0,4.3,56,0.00,,,0.00,WUHU216HW,2013-04-25 05:51:00,
2013-04-24 22:56:00,64.1,48.4,29.84,SSE,165,3.4,6.3,57,0.00,,,0.00,WUHU216HW,2013-04-25 05:56:00,
2013-04-24 23:01:00,64.1,49.0,29.84,SE,138,3.4,4.5,58,0.00,,,0.00,WUHU216HW,2013-04-25 06:01:00,
2013-04-24 23:06:00,63.9,48.8,29.85,SSE,152,4.6,6.5,58,0.00,,,0.00,WUHU216HW,2013-04-25 06:06:00,
2013-04-24 23:11:00,63.7,49.1,29.85,SE,142,3.7,6.0,59,0.00,,,0.00,WUHU216HW,2013-04-25 06:11:00,
2013-04-24 23:16:00,63.5,49.0,29.85,SSE,159,3.3,4.7,59,0.00,,,0.00,WUHU216HW,2013-04-25 06:16:00,
2013-04-24 23:21:00,63.4,48.8,29.85,SSE,147,3.9,5.6,59,0.00,,,0.00,WUHU216HW,2013-04-25 06:21:00,
2013-04-24 23:26:00,63.2,48.6,29.85,SSE,157,3.3,4.5,59,0.00,,,0.00,WUHU216HW,2013-04-25 06:26:00,
2013-04-24 23:31:00,63.0,49.0,29.85,SSE,154,2.6,4.5,60,0.00,,,0.00,WUHU216HW,2013-04-25 06:31:00,
2013-04-24 23:36:00,63.0,49.0,29.85,SSE,149,2.6,3.6,60,0.00,,,0.00,WUHU216HW,2013-04-25 06:36:00,
2013-04-24 23:41:00,62.6,48.6,29.86,SSE,163,2.6,4.0,60,0.00,,,0.00,WUHU216HW,2013-04-25 06:41:00,
2013-04-24 23:46:00,62.6,48.6,29.86,SE,140,2.8,4.5,60,0.00,,,0.00,WUHU216HW,2013-04-25 06:46:00,
2013-04-24 23:51:00,62.5,48.9,29.86,SSE,149,3.1,4.0,61,0.00,,,0.00,WUHU216HW,2013-04-25 06:51:00,
2013-04-24 23:56:00,62.3,49.2,29.87,SE,145,3.3,5.1,62,0.00,,,0.00,WUHU216HW,2013-04-25 06:56:00,